ITY1395 LIRF-LIMJ

Flight info

Callsign ITY1395
Flight time 0h 46m
Altitude 18000
Route GILIO M729 IDONA
Aircraft A319/M-SDE1FGIJ1RWYZ/LB1D1G1

Departure

Time 2026-05-07 11:44
Airport Rome–Fiumicino Leonardo da Vinci International Airport (LIRF)

Arrival

Time 2026-05-07 12:30
Airport Genoa Cristoforo Colombo Airport (LIMJ)
Time Latitude Longitude Altitude Speed Heading
2026-05-07 11:26 41.79839 12.26518 13 ft 0 kts 70°
2026-05-07 11:39 41.79841 12.26527 13 ft 2 kts 70°
2026-05-07 11:39 41.79861 12.26568 12 ft 7 kts
2026-05-07 11:39 41.79915 12.26545 13 ft 8 kts 340°
2026-05-07 11:39 41.79974 12.26516 13 ft 9 kts 339°
2026-05-07 11:40 41.80038 12.26484 14 ft 10 kts 339°
2026-05-07 11:40 41.80110 12.26448 14 ft 11 kts 339°
2026-05-07 11:40 41.80190 12.26408 14 ft 12 kts 342°
2026-05-07 11:40 41.80275 12.26391 14 ft 12 kts 304°
2026-05-07 11:41 41.80308 12.26277 15 ft 13 kts 295°
2026-05-07 11:41 41.80353 12.26179 17 ft 12 kts 336°
2026-05-07 11:41 41.80434 12.26167 17 ft 12 kts 17°
2026-05-07 11:41 41.80523 12.26164 17 ft 13 kts 342°
2026-05-07 11:42 41.80615 12.26127 17 ft 10 kts 342°
2026-05-07 11:42 41.80623 12.26123 17 ft 0 kts 342°
2026-05-07 11:42 41.80627 12.26122 17 ft 1 kts 342°
2026-05-07 11:43 41.80659 12.26109 17 ft 5 kts 342°
2026-05-07 11:43 41.80703 12.26090 17 ft 7 kts 342°
2026-05-07 11:43 41.80709 12.26034 17 ft 8 kts 256°
2026-05-07 11:43 41.80605 12.25655 16 ft 82 kts 251°
2026-05-07 11:44 41.80327 12.24644 11 ft 148 kts 249°
2026-05-07 11:44 41.79941 12.23236 426 ft 166 kts 251°
2026-05-07 11:44 41.79550 12.21773 1122 ft 169 kts 249°
2026-05-07 11:44 41.79285 12.20283 1888 ft 166 kts 265°
2026-05-07 11:45 41.79216 12.18681 2373 ft 182 kts 268°
2026-05-07 11:45 41.79188 12.16938 2860 ft 198 kts 269°
2026-05-07 11:45 41.79154 12.14994 3340 ft 217 kts 269°
2026-05-07 11:45 41.79111 12.12901 3734 ft 241 kts 269°
2026-05-07 11:46 41.79068 12.10544 4244 ft 262 kts 273°
2026-05-07 11:46 41.79601 12.08199 4974 ft 271 kts 303°
2026-05-07 11:46 41.80724 12.06242 5943 ft 272 kts 309°
2026-05-07 11:46 41.81956 12.04305 6833 ft 276 kts 309°
2026-05-07 11:47 41.83186 12.02311 7747 ft 280 kts 308°
2026-05-07 11:47 41.84380 12.00307 8647 ft 282 kts 307°
2026-05-07 11:47 41.85586 11.98241 9588 ft 284 kts 306°
2026-05-07 11:47 41.86804 11.96126 10485 ft 287 kts 306°
2026-05-07 11:48 41.88028 11.93982 11011 ft 303 kts 305°
2026-05-07 11:48 41.89343 11.91662 11450 ft 321 kts 305°
2026-05-07 11:48 41.90717 11.89238 11928 ft 335 kts 304°
2026-05-07 11:48 41.92147 11.86707 12675 ft 341 kts 304°
2026-05-07 11:49 41.93571 11.84186 13471 ft 344 kts 304°
2026-05-07 11:49 41.95012 11.81632 14229 ft 347 kts 304°
2026-05-07 11:49 41.96464 11.79055 15010 ft 350 kts 304°
2026-05-07 11:49 41.97939 11.76430 15739 ft 353 kts 303°
2026-05-07 11:50 41.99422 11.73788 16458 ft 356 kts 303°
2026-05-07 11:50 42.00912 11.71129 17165 ft 359 kts 303°
2026-05-07 11:50 42.02412 11.68454 17848 ft 361 kts 303°
2026-05-07 11:50 42.03922 11.65759 18530 ft 364 kts 303°
2026-05-07 11:51 42.05438 11.63048 19142 ft 367 kts 303°
2026-05-07 11:51 42.06969 11.60311 19783 ft 369 kts 303°
2026-05-07 11:51 42.08501 11.57571 20570 ft 366 kts 302°
2026-05-07 11:51 42.10020 11.54855 21372 ft 363 kts 302°
2026-05-07 11:52 42.11536 11.52154 22124 ft 361 kts 302°
2026-05-07 11:52 42.13048 11.49466 22844 ft 360 kts 301°
2026-05-07 11:52 42.14540 11.46804 23539 ft 358 kts 301°
2026-05-07 11:52 42.16019 11.44158 24264 ft 356 kts 300°
2026-05-07 11:53 42.17497 11.41503 24951 ft 355 kts 300°
2026-05-07 11:53 42.18974 11.38834 25312 ft 362 kts 300°
2026-05-07 11:53 42.20535 11.36009 25531 ft 373 kts 300°
2026-05-07 11:53 42.22102 11.33166 25765 ft 382 kts 300°
2026-05-07 11:54 42.23689 11.30286 26149 ft 387 kts 300°
2026-05-07 11:54 42.25309 11.27351 26700 ft 387 kts 300°
2026-05-07 11:54 42.26912 11.24450 27224 ft 387 kts 300°
2026-05-07 11:54 42.28525 11.21528 27680 ft 389 kts 300°
2026-05-07 11:55 42.30128 11.18615 27935 ft 391 kts 300°
2026-05-07 11:55 42.31764 11.15643 27955 ft 393 kts 300°
2026-05-07 11:55 42.33375 11.12713 27960 ft 393 kts 300°
2026-05-07 11:55 42.35016 11.09728 27964 ft 393 kts 300°
2026-05-07 11:56 42.36620 11.06807 27963 ft 392 kts 300°
2026-05-07 11:56 42.38253 11.03830 27964 ft 393 kts 300°
2026-05-07 11:56 42.39886 11.00849 27961 ft 393 kts 300°
2026-05-07 11:56 42.41488 10.97919 27961 ft 393 kts 300°
2026-05-07 11:57 42.43116 10.94941 27962 ft 393 kts 300°
2026-05-07 11:57 42.44740 10.91971 27964 ft 392 kts 300°
2026-05-07 11:57 42.46350 10.89020 27966 ft 392 kts 300°
2026-05-07 11:57 42.47961 10.86064 27963 ft 392 kts 300°
2026-05-07 11:58 42.49594 10.83065 27965 ft 392 kts 300°
2026-05-07 11:58 42.51209 10.80095 27963 ft 392 kts 300°
2026-05-07 11:58 42.52814 10.77150 27968 ft 393 kts 301°
2026-05-07 11:58 42.54769 10.74486 27957 ft 399 kts 314°
2026-05-07 11:59 42.56983 10.72301 27962 ft 392 kts 317°
2026-05-07 11:59 42.59238 10.70152 27964 ft 404 kts 317°
2026-05-07 11:59 42.61514 10.67958 27960 ft 407 kts 317°
2026-05-07 11:59 42.63827 10.65703 27962 ft 407 kts 317°
2026-05-07 12:00 42.66101 10.63461 27965 ft 407 kts 316°
2026-05-07 12:00 42.68404 10.61172 27962 ft 408 kts 316°
2026-05-07 12:00 42.70686 10.58892 27963 ft 407 kts 316°
2026-05-07 12:00 42.72953 10.56617 27962 ft 407 kts 316°
2026-05-07 12:01 42.75241 10.54317 27964 ft 408 kts 316°
2026-05-07 12:01 42.77503 10.52037 27960 ft 408 kts 316°
2026-05-07 12:01 42.79765 10.49754 27963 ft 408 kts 316°
2026-05-07 12:01 42.82045 10.47451 27960 ft 409 kts 316°
2026-05-07 12:02 42.84335 10.45134 27962 ft 409 kts 316°
2026-05-07 12:02 42.86591 10.42850 27963 ft 409 kts 316°
2026-05-07 12:02 42.88897 10.40512 27960 ft 409 kts 316°
2026-05-07 12:02 42.91157 10.38222 27968 ft 408 kts 316°
2026-05-07 12:03 42.93422 10.35922 27973 ft 408 kts 316°
2026-05-07 12:03 42.95691 10.33612 27980 ft 407 kts 316°
2026-05-07 12:03 42.97950 10.31301 27986 ft 407 kts 316°
2026-05-07 12:03 43.00201 10.28996 27988 ft 407 kts 316°
2026-05-07 12:04 43.02465 10.26681 27983 ft 406 kts 316°
2026-05-07 12:04 43.04723 10.24373 27989 ft 406 kts 316°
2026-05-07 12:04 43.06976 10.22071 27997 ft 406 kts 316°
2026-05-07 12:04 43.09231 10.19763 27993 ft 406 kts 316°
2026-05-07 12:05 43.11514 10.17432 27766 ft 403 kts 316°
2026-05-07 12:05 43.13743 10.15169 27410 ft 399 kts 316°
2026-05-07 12:05 43.15971 10.12896 27163 ft 399 kts 316°
2026-05-07 12:05 43.18191 10.10624 26921 ft 398 kts 316°
2026-05-07 12:06 43.20397 10.08360 26676 ft 397 kts 316°
2026-05-07 12:06 43.22581 10.06115 26429 ft 396 kts 316°
2026-05-07 12:06 43.24778 10.03854 26173 ft 394 kts 316°
2026-05-07 12:06 43.26966 10.01598 25880 ft 393 kts 316°
2026-05-07 12:07 43.29141 9.99352 25549 ft 392 kts 316°
2026-05-07 12:07 43.31292 9.97129 25106 ft 389 kts 317°
2026-05-07 12:07 43.33447 9.94900 24550 ft 388 kts 317°
2026-05-07 12:07 43.35583 9.92693 24000 ft 385 kts 317°
2026-05-07 12:08 43.37765 9.90573 23444 ft 385 kts 321°
2026-05-07 12:08 43.40076 9.88713 23089 ft 384 kts 326°
2026-05-07 12:08 43.42429 9.87048 22841 ft 385 kts 328°
2026-05-07 12:08 43.44828 9.85378 22589 ft 382 kts 328°
2026-05-07 12:09 43.47175 9.83736 22332 ft 381 kts 328°
2026-05-07 12:09 43.49516 9.82079 22083 ft 379 kts 328°
2026-05-07 12:09 43.51850 9.80416 21835 ft 377 kts 328°
2026-05-07 12:09 43.54155 9.78765 21577 ft 375 kts 328°
2026-05-07 12:10 43.56481 9.77095 21319 ft 373 kts 328°
2026-05-07 12:10 43.58777 9.75443 21056 ft 372 kts 328°
2026-05-07 12:10 43.61029 9.73818 20800 ft 370 kts 328°
2026-05-07 12:10 43.63330 9.72156 20541 ft 368 kts 328°
2026-05-07 12:11 43.65575 9.70533 20295 ft 367 kts 328°
2026-05-07 12:11 43.67822 9.68905 20038 ft 365 kts 328°
2026-05-07 12:11 43.70064 9.67283 19781 ft 363 kts 328°
2026-05-07 12:11 43.72295 9.65664 19525 ft 361 kts 329°
2026-05-07 12:12 43.74488 9.64035 19274 ft 358 kts 326°
2026-05-07 12:12 43.76597 9.62256 19023 ft 355 kts 324°
2026-05-07 12:12 43.78664 9.60441 18651 ft 350 kts 324°
2026-05-07 12:12 43.80693 9.58656 17812 ft 346 kts 325°
2026-05-07 12:13 43.82704 9.56891 16495 ft 352 kts 325°
2026-05-07 12:13 43.84784 9.55073 15075 ft 357 kts 326°
2026-05-07 12:13 43.86858 9.53266 13849 ft 355 kts 326°
2026-05-07 12:13 43.88902 9.51490 12744 ft 350 kts 326°
2026-05-07 12:14 43.90946 9.49715 11884 ft 338 kts 326°
2026-05-07 12:14 43.92900 9.48016 11333 ft 329 kts 326°
2026-05-07 12:14 43.94797 9.46366 11022 ft 319 kts 326°
2026-05-07 12:14 43.96641 9.44760 10960 ft 303 kts 325°
2026-05-07 12:15 43.98293 9.43096 10863 ft 289 kts 321°
2026-05-07 12:15 43.99864 9.41481 10788 ft 274 kts 313°
2026-05-07 12:15 44.00876 9.39415 10873 ft 249 kts 292°
2026-05-07 12:15 44.01492 9.37249 10907 ft 232 kts 289°
2026-05-07 12:16 44.02060 9.35191 10923 ft 228 kts 290°
2026-05-07 12:16 44.02694 9.33058 10947 ft 250 kts 291°
2026-05-07 12:16 44.03411 9.30830 10946 ft 256 kts 292°
2026-05-07 12:16 44.04172 9.28577 10763 ft 258 kts 293°
2026-05-07 12:17 44.04948 9.26351 10517 ft 256 kts 294°
2026-05-07 12:17 44.05731 9.24137 10273 ft 256 kts 294°
2026-05-07 12:17 44.06517 9.21934 10025 ft 255 kts 294°
2026-05-07 12:17 44.07309 9.19722 9844 ft 255 kts 294°
2026-05-07 12:18 44.08105 9.17503 9717 ft 255 kts 294°
2026-05-07 12:18 44.08889 9.15325 9597 ft 254 kts 294°
2026-05-07 12:18 44.09675 9.13139 9459 ft 254 kts 294°
2026-05-07 12:18 44.10466 9.10945 9328 ft 253 kts 294°
2026-05-07 12:19 44.11270 9.08751 9212 ft 252 kts 294°
2026-05-07 12:19 44.12057 9.06593 9094 ft 252 kts 294°
2026-05-07 12:19 44.12841 9.04432 8968 ft 251 kts 294°
2026-05-07 12:19 44.13625 9.02258 8836 ft 251 kts 294°
2026-05-07 12:20 44.14405 9.00088 8707 ft 251 kts 294°
2026-05-07 12:20 44.15180 8.97928 8580 ft 251 kts 294°
2026-05-07 12:20 44.15956 8.95760 8442 ft 250 kts 294°
2026-05-07 12:20 44.16739 8.93576 8337 ft 250 kts 294°
2026-05-07 12:21 44.17508 8.91428 8203 ft 250 kts 294°
2026-05-07 12:21 44.18289 8.89239 8065 ft 250 kts 294°
2026-05-07 12:21 44.19054 8.87092 7923 ft 250 kts 294°
2026-05-07 12:21 44.19830 8.84913 7772 ft 249 kts 294°
2026-05-07 12:22 44.20591 8.82777 7607 ft 249 kts 294°
2026-05-07 12:22 44.21360 8.80617 7381 ft 248 kts 294°
2026-05-07 12:22 44.22116 8.78490 7131 ft 247 kts 294°
2026-05-07 12:22 44.22883 8.76329 6874 ft 245 kts 295°
2026-05-07 12:23 44.23629 8.74225 6669 ft 240 kts 295°
2026-05-07 12:23 44.24354 8.72178 6486 ft 234 kts 295°
2026-05-07 12:23 44.25067 8.70171 6250 ft 230 kts 295°
2026-05-07 12:23 44.25766 8.68198 6016 ft 226 kts 295°
2026-05-07 12:24 44.26452 8.66262 5745 ft 221 kts 295°
2026-05-07 12:24 44.27126 8.64355 5447 ft 216 kts 295°
2026-05-07 12:24 44.27785 8.62491 5167 ft 214 kts 295°
2026-05-07 12:24 44.28448 8.60669 4966 ft 209 kts 301°
2026-05-07 12:25 44.29516 8.59409 4882 ft 200 kts 344°
2026-05-07 12:25 44.30883 8.59489 4620 ft 200 kts 17°
2026-05-07 12:25 44.32201 8.60086 4353 ft 201 kts 18°
2026-05-07 12:25 44.33526 8.60669 4085 ft 201 kts 17°
2026-05-07 12:26 44.34844 8.61257 3897 ft 195 kts 25°
2026-05-07 12:26 44.35814 8.62514 3662 ft 186 kts 58°
2026-05-07 12:26 44.36412 8.64020 3418 ft 176 kts 64°
2026-05-07 12:26 44.36951 8.65518 3127 ft 166 kts 64°
2026-05-07 12:27 44.37466 8.66897 2876 ft 158 kts 63°
2026-05-07 12:27 44.37978 8.68208 2636 ft 149 kts 63°
2026-05-07 12:27 44.38477 8.69450 2354 ft 144 kts 63°
2026-05-07 12:27 44.38963 8.70652 2174 ft 144 kts 62°
2026-05-07 12:28 44.39462 8.71871 1969 ft 144 kts 62°
2026-05-07 12:28 44.39953 8.73109 1837 ft 144 kts 63°
2026-05-07 12:28 44.40432 8.74347 1607 ft 144 kts 64°
2026-05-07 12:28 44.40893 8.75568 1380 ft 141 kts 65°
2026-05-07 12:29 44.41337 8.76769 1201 ft 141 kts 65°
2026-05-07 12:29 44.41737 8.78017 935 ft 138 kts 75°
2026-05-07 12:29 44.41921 8.79305 679 ft 136 kts 88°
2026-05-07 12:29 44.41899 8.80613 392 ft 133 kts 104°
2026-05-07 12:30 44.41651 8.81836 160 ft 131 kts 105°
2026-05-07 12:30 44.41416 8.83068 28 ft 125 kts 107°
2026-05-07 12:30 44.41213 8.84093 19 ft 88 kts 105°
2026-05-07 12:30 44.41099 8.84680 23 ft 37 kts 106°
2026-05-07 12:31 44.41094 8.84843 24 ft 7 kts 13°
2026-05-07 12:31 44.41141 8.84874 25 ft 7 kts 30°
2026-05-07 12:31 44.41192 8.84900 26 ft 7 kts 13°
2026-05-07 12:31 44.41244 8.84918 27 ft 7 kts 16°
2026-05-07 12:32 44.41297 8.84940 28 ft 7 kts 16°
2026-05-07 12:32 44.41344 8.84974 29 ft 7 kts 63°
2026-05-07 12:32 44.41375 8.85014 29 ft 7 kts
2026-05-07 12:32 44.41414 8.85027 29 ft 2 kts 17°
2026-05-07 12:33 44.41420 8.85030 29 ft 0 kts 16°